#timestamp,LO_Frequency,Hit,StdDev 
1560247215.1,286046999.9,N
1560247235.9,286046998.6,N
1560247255.7,286046998.9,N
1560247275.5,286046996.5,N
1560247295.4,286046996.9,N
1560247315.2,286046999.0,N
1560247335.1,286046999.3,N
1560247336.0,286046999.3,N
1560247355.8,286047000.6,N
1560247375.6,286046998.9,N
1560247395.5,286046998.5,N
1560247415.3,286046998.6,N
1560247435.2,286046998.7,N
1560247455.9,286046998.5,N
1560247475.7,286047001.2,N
1560247495.6,286046999.6,N
1560247515.4,286046996.9,N
1560247535.2,286046996.9,N
1560247555.1,286046998.3,N
1560247556.0,286046998.3,N
1560247575.8,286047000.7,N
1560247595.7,286047000.6,N
1560247615.5,286047000.9,N
1560247635.3,286047001.2,N
1560247655.2,286047002.4,N
1560247675.0,286047000.2,N
1560247675.9,286047000.2,N
1560247695.7,286046998.2,N
1560247715.6,286047000.4,N
1560247735.4,286046998.6,N
1560247755.3,286046998.9,N
1560247775.1,286046997.4,N
1560247776.0,286046997.4,N
1560247795.8,286046997.9,N
1560247815.6,286046997.6,N
1560247835.5,286046996.7,N
1560247855.3,286046997.2,N
1560247875.2,286046997.8,N
1560247895.9,286046999.0,N
1560247915.7,286046998.3,N
1560247935.6,286046998.6,N
1560247955.4,286046998.3,N
1560247975.3,286046999.1,N
1560247995.1,286046999.6,N
1560247996.0,286046999.6,N
1560248015.8,286046996.6,N
1560248035.7,286046997.6,N
1560248055.5,286046997.8,N
1560248075.3,286046997.5,N
1560248095.3,286046994.9,Y
1560248115.1,286046999.2,P
1560248116.0,286046999.2,P
1560248135.8,286046999.3,P
1560248155.7,286046998.4,Y
1560248175.5,286046999.9,P
1560248195.3,286046998.7,P
1560248215.2,286046998.9,N
1560248235.0,286046998.7,N
1560248235.9,286046998.7,N
1560248255.8,286047000.0,N
1560248275.6,286047002.5,Y
1560248295.4,286047002.4,P
1560248315.3,286047001.9,N
1560248335.1,286047002.2,N
1560248355.8,286047000.2,N
1560248375.6,286047000.7,N
1560248395.5,286046998.4,N
1560248415.3,286047000.6,N
1560248435.1,286047002.2,N
1560248455.9,286047002.4,N
1560248475.7,286047002.0,N
1560248495.5,286047002.8,N
1560248515.4,286047002.8,N
1560248535.2,286047001.0,N
1560248555.1,286047000.6,N
1560248556.0,286047000.6,N
1560248575.8,286047002.2,N
1560248595.5,286046999.7,N
1560248615.4,286047001.5,N
1560248635.2,286047002.0,N
1560248655.1,286046999.7,N
1560248656.0,286046999.7,N
1560248675.8,286047002.5,N
1560248695.6,286047002.6,N
1560248715.5,286047004.4,Y
1560248735.3,286047004.2,P
1560248755.2,286047002.2,N
1560248775.9,286047004.2,P
1560248795.7,286047003.1,N
1560248815.6,286047003.9,Y
1560248835.4,286046998.3,P
1560248855.2,286047000.7,N
1560248875.1,286047000.3,N
1560248876.0,286047000.3,N
1560248895.8,286047001.6,N
1560248915.7,286047001.6,N
1560248935.5,286047002.7,N
1560248955.3,286047002.2,N
1560248975.1,286047004.3,Y
1560248976.0,286047004.3,P
1560248995.8,286046999.7,N
1560249015.7,286046999.8,N
1560249035.5,286047000.4,N
1560249055.3,286047001.0,N
1560249075.2,286047000.5,N
1560249095.0,286046998.7,N
1560249095.9,286046998.7,N
1560249115.8,286046998.7,N
1560249135.6,286046999.4,N
1560249155.4,286046997.1,N
1560249175.3,286046996.7,N
1560249195.1,286046998.0,N
1560249215.8,286046997.3,N
1560249235.7,286046997.1,N
1560249255.5,286046996.6,N
1560249275.4,286046996.5,N
1560249295.2,286046996.8,N
1560249315.0,286046997.3,N
1560249315.9,286046997.3,N
1560249335.8,286046997.2,N
1560249355.6,286046997.0,N
1560249375.5,286046997.3,N
1560249395.3,286046999.3,N
1560249415.1,286046999.2,N
1560249435.9,286046997.1,N
1560249455.7,286046996.9,N
1560249475.5,286046997.4,N
1560249495.4,286046996.8,N
1560249515.2,286046997.0,N
1560249535.0,286046997.7,N
1560249536.0,286046997.7,N
1560249555.8,286046997.7,N
1560249575.6,286046996.9,N
1560249595.5,286046997.4,N
1560249615.2,286046997.3,N
1560249635.0,286046997.3,Y
1560249635.9,286046997.3,P
1560249655.8,286047000.7,P
1560249675.6,286046998.5,N
1560249695.4,286046999.2,N
1560249715.3,286046996.6,N
1560249735.1,286046996.8,N
1560249755.9,286046995.4,Y
1560249775.7,286046999.1,P
1560249795.5,286046999.0,N
1560249815.4,286046998.9,N
1560249835.2,286046996.5,Y
1560249855.0,286047001.0,P
1560249855.9,286047001.0,N
1560249875.8,286047000.6,N
1560249895.6,286047000.3,N
1560249915.5,286047000.9,N
1560249935.3,286046998.5,N
1560249955.1,286046998.6,N
1560249975.9,286046998.6,N
1560249995.7,286047001.1,N
1560250015.5,286047002.4,N
1560250035.4,286047002.7,N
1560250055.2,286047000.2,N
1560250075.1,286046999.7,N
1560250076.0,286046999.7,N
1560250095.8,286046999.7,N
1560250115.6,286046999.8,N
1560250135.5,286047000.3,N
1560250155.3,286047000.5,N
1560250175.2,286047002.4,N
1560250195.9,286047002.1,N
1560250215.7,286047001.5,N
1560250235.6,286047002.7,N
1560250255.4,286047001.3,N
1560250275.2,286047004.4,Y
1560250295.1,286047002.5,P
1560250296.0,286047002.5,N
1560250315.8,286047004.1,P
1560250335.7,286047001.5,N
1560250355.5,286047001.3,N
1560250375.3,286047001.5,N
1560250395.2,286047004.4,Y
1560250415.0,286047000.3,P
1560250415.9,286047000.3,N
1560250435.8,286047001.2,N
1560250455.6,286046999.1,N
1560250475.4,286046996.8,Y
1560250495.3,286046997.2,P
1560250515.1,286046997.7,N
1560250535.8,286046998.9,N
1560250555.7,286046999.0,N
1560250575.5,286046996.6,N
1560250595.3,286046998.9,N
1560250615.2,286047001.2,N
1560250635.0,286047000.7,N
1560250635.9,286047000.7,N
1560250655.8,286047001.0,N
1560250675.6,286046998.2,N
1560250695.4,286046999.9,N
1560250715.3,286047000.6,N
1560250735.1,286046998.7,N
1560250755.8,286046999.1,N
1560250775.7,286046996.8,N
1560250795.5,286046995.5,Y
